Weather in Pechenkino

Russia / Chelyabinsk Oblast     54°50′33″N   61°38′16″E
temp.,
°C
wind,
m/s
gust,
m/s
humid.,
%
clouds,
%
prec.,
mm/h
press.,
hPa
HPBL,
m
14 june, mon
mon1423:00+17se3351100 0.0 102224
02:00+16s4552100 0.0 102266
05:00+15s345298 0.0 102360
08:00+18ssw3855100 0.0 1024240
11:00+25ssw573686 0.0 1023777
14:00+27ssw56305 0.0 10221903
17:00+27ssw56315 0.0 10212054
20:00+23s335129 0.0 102042
15 june, tue
tue1523:00+19ssw4647100 0.0 102072
02:00+17sw475220 0.0 102094
05:00+16sw465499 0.0 102085
08:00+21sw51052100 0.0 1019273
11:00+27sw693941 0.0 1018875
14:00+29wsw673162 0.0 10172127
17:00+29wsw563426 0.0 10162215
20:00+25sw33535 0.0 101537
16 june, wed
wed1623:00+20wsw22585 0.0 101514
02:00+18ne116786 0.0 101511
05:00+18w117192 0.0 101611
08:00+24wsw355574 0.0 1015219
11:00+28wsw56405 0.0 10151170
14:00+30wsw453317 0.0 10142504
17:00+30wnw353437 0.0 10132355
20:00+21n48704 0.2 1013144
17 june, thu
thu1723:00+18w410878 1.0 1014167
02:00+17s34865 0.1 101254
05:00+16ssw33827 0.1 101131
08:00+22ssw596413 0.0 1009325
11:00+27sw684578 0.0 1007755
14:00+30sw583558 0.0 10051911
17:00+30ssw59345 0.0 10022725
20:00+18nw91978100 1.5 1004573
18 june, fri
fri1823:00+18nnw61386100 3.6 1005590
02:00+14n91389100 0.1 1007798
05:00+12n91675100 0.1 1009803
08:00+13n1014600 0.0 1011977
11:00+15n1014460 0.0 10121370
14:00+17n1013330 0.0 10131862
17:00+18n913340 0.0 10142212
20:00+15n612460 0.0 1015732